EW1976 Weather Reports


time (UTC)temp
F
wind
direction
speed
knots
gust
knots
rain 1hr
in
rain 24hr
in
rain mn
in
humidity
%
barometer
mb
20260503194546 71 264 0.9 7.8 0.00 0.00 0.00 59 1014.3
20260503193050 71 249 2.6 7.8 0.00 0.00 0.00 62 1014.3
20260503191543 72 278 3.5 8.7 0.00 0.00 0.00 62 1014.3
20260503190039 73 262 3.5 6.1 0.00 0.00 0.00 60 1014.4
20260503184550 73 284 1.7 4.3 0.00 0.00 0.00 57 1014.4
20260503183047 73 342 0.9 4.3 0.00 0.00 0.00 56 1014.7
20260503181532 72 233 0.0 4.3 0.00 0.00 0.00 58 1014.8
20260503180034 72 103 0.9 2.6 0.00 0.00 0.00 57 1014.9
20260503174527 70 282 0.9 3.5 0.00 0.00 0.00 57 1015.1
20260503173032 71 144 0.0 2.6 0.00 0.00 0.00 58 1015.3
20260503171525 69 269 0.9 3.5 0.00 0.00 0.00 60 1015.4
20260503150107 58 277 0.0 1.7 0.00 0.00 0.00 87 1016.1
20260503081518 50 252 0.0 0.9 0.00 0.00 0.00 92 1015.4
20260503071513 52 117 0.0 0.0 0.00 0.00 0.00 89 1015.3
20260503054504 54 117 0.0 0.0 0.00 0.00 0.00 85 1014.8
20260503053004 55 117 0.0 0.9 0.00 0.00 0.00 85 1014.8
20260503051504 56 118 0.0 0.9 0.00 0.00 0.00 83 1014.8
20260503050004 57 198 0.0 1.7 0.00 0.00 0.00 81 1014.8
20260503044503 58 198 0.0 0.0 0.00 0.00 0.00 80 1014.9
20260503043002 59 198 0.0 0.0 0.00 0.00 0.00 79 1014.7
20260503041502 60 198 0.0 0.0 0.00 0.00 0.00 79 1014.7
20260503040001 62 198 0.0 0.9 0.00 0.00 0.00 75 1014.5
20260503034618 63 198 0.0 0.9 0.00 0.00 0.00 73 1014.4
20260503033102 65 198 0.0 0.9 0.00 0.00 0.00 71 1014.3
20260503031600 68 198 0.9 0.9 0.00 0.00 0.00 67 1014.2
20260503030059 72 206 0.0 0.9 0.00 0.00 0.00 61 1014.0
20260503024605 73 212 0.0 0.9 0.00 0.00 0.00 54 1013.9
20260503023100 74 267 0.0 1.7 0.00 0.00 0.00 54 1014.0
20260503021556 75 214 0.0 2.6 0.00 0.00 0.00 52 1014.1
20260503020055 75 259 0.0 1.7 0.00 0.00 0.00 54 1014.2
20260503014610 75 202 0.0 2.6 0.00 0.00 0.00 53 1014.3
20260503013055 76 278 0.9 1.7 0.00 0.00 0.00 52 1014.4
20260503011551 75 271 0.9 3.5 0.00 0.00 0.00 53 1014.4
20260503010049 75 281 2.6 7.0 0.00 0.00 0.00 51 1014.5
20260503004548 75 246 1.7 7.0 0.00 0.00 0.00 52 1014.5
20260503003047 75 278 3.5 7.0 0.00 0.00 0.00 53 1014.6
20260503001545 75 287 2.6 6.1 0.00 0.00 0.00 56 1014.7
20260503000044 74 252 1.7 4.3 0.00 0.00 0.00 59 1014.7
20260502234543 74 294 0.9 6.1 0.00 0.00 0.00 58 1014.9
20260502233044 74 274 3.5 7.8 0.00 0.00 0.00 55 1015.1
20260502231539 74 259 2.6 5.2 0.00 0.00 0.00 55 1015.2
20260502230036 73 294 0.9 8.7 0.00 0.00 0.00 58 1015.4
20260502224533 73 248 1.7 8.7 0.00 0.00 0.00 56 1015.6
20260502223033 73 239 3.5 7.8 0.00 0.00 0.00 59 1016.0
20260502221528 72 233 3.5 7.0 0.00 0.00 0.00 59 1016.1
20260502220026 72 240 3.5 7.8 0.00 0.00 0.00 60 1016.2
20260502214529 71 286 3.5 7.8 0.00 0.00 0.00 62 1016.4
20260502213023 71 269 2.6 7.0 0.00 0.00 0.00 63 1016.6
20260502211530 71 276 1.7 8.7 0.00 0.00 0.00 64 1016.7
20260502210022 70 288 0.9 7.8 0.00 0.00 0.00 64 1016.9
20260502204522 69 236 4.3 8.7 0.00 0.00 0.00 64 1017.0
20260502203021 69 268 4.3 8.7 0.00 0.00 0.00 63 1017.1
20260502201520 69 255 3.5 9.6 0.00 0.00 0.00 65 1017.3
20260502200020 70 198 3.5 8.7 0.00 0.00 0.00 65 1017.4